GW1348 Weather Reports


Display with metric or nautical units.
time (UTC)temp
F
wind
direction
speed
MPH
gust
MPH
rain 1hr
in
rain 24hr
in
rain mn
in
humidity
%
barometer
mb
20260905085531 55 0 0.0 4.0 0.00 0.00 0.00 83 999.2
20260905085031 55 32 1.0 4.0 0.00 0.00 0.00 83 999.3
20260905084549 55 0 0.0 3.0 0.00 0.00 0.00 84 999.2
20260905084030 55 0 0.0 4.0 0.00 0.00 0.00 85 999.1
20260905083531 54 0 0.0 4.0 0.00 0.00 0.00 86 999.2
20260905083055 54 138 1.0 4.0 0.00 0.00 0.00 86 999.1
20260905082530 54 0 0.0 0.0 0.00 0.00 0.00 87 999.0
20260905082033 53 0 0.0 0.0 0.00 0.00 0.00 87 999.0
20260905081550 53 0 0.0 0.0 0.00 0.00 0.00 88 998.9
20260905081030 53 0 0.0 0.0 0.00 0.00 0.00 87 998.9
20260905080530 53 0 0.0 0.0 0.00 0.00 0.00 88 998.9
20260905080100 53 0 0.0 0.0 0.00 0.00 0.00 88 998.9
20260905075530 53 0 0.0 0.0 0.00 0.00 0.00 89 998.8
20260905075030 53 0 0.0 0.0 0.00 0.00 0.00 88 998.9
20260905074556 53 0 0.0 0.0 0.00 0.00 0.00 89 998.8
20260905074030 53 0 0.0 0.0 0.00 0.00 0.00 89 998.8
20260905073530 52 0 0.0 0.0 0.00 0.00 0.00 89 998.7
20260905073103 53 0 0.0 0.0 0.00 0.00 0.00 89 998.7
20260905072530 52 0 0.0 0.0 0.00 0.00 0.00 89 998.6
20260905072029 52 0 0.0 0.0 0.00 0.00 0.00 89 998.6
20260905071551 53 0 0.0 0.0 0.00 0.00 0.00 89 998.6
20260905071031 53 0 0.0 0.0 0.00 0.00 0.00 89 998.5
20260905070530 53 0 0.0 3.0 0.00 0.00 0.00 90 998.5
20260905070050 52 0 0.0 3.0 0.00 0.00 0.00 90 998.4
20260905065530 52 0 0.0 2.0 0.00 0.00 0.00 92 998.3
20260905065036 52 74 0.0 2.0 0.00 0.00 0.00 92 998.3
20260905064609 52 32 0.0 0.0 0.00 0.00 0.00 93 998.4
20260905064030 51 0 0.0 0.0 0.00 0.00 0.00 93 998.3
20260905063533 51 0 0.0 0.0 0.00 0.00 0.00 93 998.2
20260905063057 51 0 0.0 0.0 0.00 0.00 0.00 94 998.1
20260905062530 50 0 0.0 0.0 0.00 0.00 0.00 94 998.2
20260905062033 50 0 0.0 0.0 0.00 0.00 0.00 94 998.0
20260905061617 50 0 0.0 0.0 0.00 0.00 0.00 94 998.1
20260905061029 50 0 0.0 0.0 0.00 0.00 0.00 94 998.0
20260905060530 50 0 0.0 0.0 0.00 0.00 0.00 93 997.9
20260905060104 50 0 0.0 0.0 0.00 0.00 0.00 93 998.0
20260905055531 50 0 0.0 0.0 0.00 0.00 0.00 94 997.9
20260905055031 50 0 0.0 0.0 0.00 0.00 0.00 94 997.8
20260905054604 50 0 0.0 0.0 0.00 0.00 0.00 94 997.7
20260905054030 49 0 0.0 0.0 0.00 0.00 0.00 94 997.6
20260905053530 49 0 0.0 0.0 0.00 0.00 0.00 95 997.5
20260905053052 49 0 0.0 0.0 0.00 0.00 0.00 95 997.5
20260905052530 49 0 0.0 0.0 0.00 0.00 0.00 95 997.6
20260905052030 49 0 0.0 0.0 0.00 0.00 0.00 95 997.5
20260905051607 49 0 0.0 0.0 0.00 0.00 0.00 94 997.5
20260905051030 49 0 0.0 0.0 0.00 0.00 0.00 94 997.4
20260905050533 49 0 0.0 0.0 0.00 0.00 0.00 94 997.4
20260905045532 49 0 0.0 0.0 0.00 0.00 0.00 94 997.4
20260905045030 48 0 0.0 0.0 0.00 0.00 0.00 94 997.4
20260905044556 48 0 0.0 0.0 0.00 0.00 0.00 94 997.3
20260905044033 48 0 0.0 0.0 0.00 0.00 0.00 94 997.3
20260905043530 48 0 0.0 0.0 0.00 0.00 0.00 94 997.3
20260905043052 48 0 0.0 0.0 0.00 0.00 0.00 94 997.3
20260905042531 48 0 0.0 0.0 0.00 0.00 0.00 94 997.2
20260905042032 48 0 0.0 0.0 0.00 0.00 0.00 94 997.2
20260905041551 48 0 0.0 0.0 0.00 0.00 0.00 94 997.1
20260905041030 48 0 0.0 0.0 0.00 0.00 0.00 94 997.1
20260905040530 48 0 0.0 0.0 0.00 0.00 0.00 94 997.1
20260905040054 48 0 0.0 0.0 0.00 0.00 0.00 94 997.0
20260905035531 48 0 0.0 0.0 0.00 0.00 0.00 94 997.0
20260905035031 48 0 0.0 0.0 0.00 0.00 0.00 93 997.0
20260905034608 48 0 0.0 0.0 0.00 0.00 0.00 93 997.0
20260905034030 48 0 0.0 0.0 0.00 0.00 0.00 93 997.0
20260905033530 48 0 0.0 0.0 0.00 0.00 0.00 93 996.9
20260905033103 48 0 0.0 0.0 0.00 0.00 0.00 92 996.8
20260905032529 48 0 0.0 0.0 0.00 0.00 0.00 92 996.9
20260905032030 48 0 0.0 0.0 0.00 0.00 0.00 92 996.8
20260905031558 48 0 0.0 0.0 0.00 0.00 0.00 92 996.8
20260905031030 48 0 0.0 0.0 0.00 0.00 0.00 92 996.9
20260905030531 48 0 0.0 0.0 0.00 0.00 0.00 92 996.8
20260905030047 48 0 0.0 0.0 0.00 0.00 0.00 92 996.8
20260905025531 48 0 0.0 0.0 0.00 0.00 0.00 92 996.8
20260905025033 48 0 0.0 0.0 0.00 0.00 0.00 92 996.7
20260905024551 48 0 0.0 0.0 0.00 0.00 0.00 92 996.7
20260905024032 48 0 0.0 0.0 0.00 0.00 0.00 92 996.7
20260905023530 48 0 0.0 0.0 0.00 0.00 0.00 92 996.6
20260905023125 48 0 0.0 0.0 0.00 0.00 0.00 92 996.6
20260905022534 48 0 0.0 0.0 0.00 0.00 0.00 92 996.7
20260905022030 49 0 0.0 0.0 0.00 0.00 0.00 93 996.6
20260905021549 49 0 0.0 0.0 0.00 0.00 0.00 93 996.5
20260905021029 49 0 0.0 0.0 0.00 0.00 0.00 92 996.6
20260905020532 49 0 0.0 0.0 0.00 0.00 0.00 93 996.6
20260905020104 48 0 0.0 0.0 0.00 0.00 0.00 92 996.5
20260905015529 48 0 0.0 0.0 0.00 0.01 0.00 92 996.6
20260905015033 48 0 0.0 0.0 0.00 0.01 0.00 92 996.5
20260905014552 48 0 0.0 0.0 0.00 0.01 0.00 92 996.5
20260905014029 48 0 0.0 0.0 0.00 0.01 0.00 91 996.4
20260905013528 48 0 0.0 0.0 0.00 0.01 0.00 91 996.4
20260905013053 48 0 0.0 0.0 0.00 0.01 0.00 91 996.5
20260905012529 48 0 0.0 0.0 0.00 0.01 0.00 91 996.4
20260905012028 49 0 0.0 0.0 0.00 0.01 0.00 91 996.4
20260905011557 49 0 0.0 0.0 0.00 0.01 0.00 91 996.4
20260905011030 49 0 0.0 0.0 0.00 0.01 0.00 91 996.3
20260905010533 48 0 0.0 0.0 0.00 0.01 0.00 91 996.2
20260905010050 48 0 0.0 0.0 0.00 0.01 0.00 91 996.3
20260905005531 48 0 0.0 0.0 0.00 0.01 0.00 91 996.3
20260905005028 48 0 0.0 0.0 0.00 0.01 0.00 92 996.3
20260905004549 48 0 0.0 0.0 0.00 0.01 0.00 92 996.3
20260905004031 48 0 0.0 0.0 0.00 0.01 0.00 92 996.3
20260905003531 47 0 0.0 0.0 0.00 0.01 0.00 92 996.4
20260905003054 48 0 0.0 0.0 0.00 0.01 0.00 91 996.4
20260905002530 48 0 0.0 0.0 0.00 0.01 0.00 91 996.3
20260905002029 48 0 0.0 1.0 0.00 0.01 0.00 91 996.4
20260905001558 48 0 0.0 1.0 0.00 0.01 0.00 91 996.3
20260905001030 48 240 1.0 1.0 0.00 0.01 0.00 90 996.3
20260905000531 48 243 1.0 2.0 0.00 0.01 0.00 90 996.3
20260904235528 48 255 1.0 2.0 0.00 0.01 0.00 89 996.3
20260904235030 48 252 1.0 2.0 0.00 0.01 0.00 90 996.3
20260904234600 48 256 0.0 0.0 0.00 0.01 0.00 90 996.4
20260904234035 48 0 0.0 0.0 0.00 0.01 0.00 91 996.4
20260904233530 48 0 0.0 0.0 0.00 0.01 0.00 91 996.3
20260904233052 48 0 0.0 0.0 0.00 0.01 0.00 91 996.4
20260904232531 48 0 0.0 0.0 0.00 0.01 0.00 92 996.4
20260904232031 47 0 0.0 0.0 0.00 0.01 0.00 92 996.5
20260904231602 47 0 0.0 0.0 0.00 0.01 0.00 92 996.4
20260904231034 47 0 0.0 0.0 0.00 0.01 0.00 91 996.4
20260904230532 48 0 0.0 0.0 0.00 0.01 0.00 90 996.5
20260904230051 48 0 0.0 0.0 0.00 0.01 0.00 90 996.4
20260904225532 48 0 0.0 0.0 0.00 0.01 0.00 90 996.4
20260904225031 48 0 0.0 2.0 0.00 0.01 0.00 90 996.3
20260904224549 49 0 0.0 2.0 0.00 0.01 0.00 89 996.3
20260904224032 49 163 0.0 2.0 0.00 0.01 0.00 89 996.3
20260904223533 49 0 0.0 0.0 0.00 0.01 0.00 89 996.4
20260904223056 49 0 0.0 0.0 0.00 0.01 0.00 89 996.4
20260904222530 49 0 0.0 0.0 0.00 0.01 0.00 89 996.4
20260904222033 49 0 0.0 0.0 0.00 0.01 0.00 90 996.3
20260904221550 49 0 0.0 0.0 0.00 0.01 0.00 90 996.4
20260904221031 49 0 0.0 0.0 0.00 0.01 0.00 90 996.4
20260904220532 49 0 0.0 0.0 0.00 0.01 0.00 90 996.5
20260904220115 49 0 0.0 0.0 0.00 0.01 0.00 90 996.4
20260904215533 49 0 0.0 0.0 0.00 0.01 0.01 90 996.4
20260904215035 49 0 0.0 0.0 0.00 0.01 0.01 91 996.4
20260904214556 49 0 0.0 0.0 0.00 0.01 0.01 91 996.4
20260904214030 48 0 0.0 0.0 0.00 0.01 0.01 91 996.4
20260904213533 48 0 0.0 0.0 0.00 0.01 0.01 91 996.4
20260904213055 48 0 0.0 0.0 0.00 0.01 0.01 91 996.4
20260904212534 48 0 0.0 0.0 0.00 0.01 0.01 91 996.4
20260904212032 49 0 0.0 0.0 0.00 0.01 0.01 90 996.5
20260904211557 49 0 0.0 0.0 0.00 0.01 0.01 89 996.6
20260904211030 49 0 0.0 0.0 0.00 0.01 0.01 89 996.5
20260904210531 49 0 0.0 0.0 0.00 0.01 0.01 89 996.4
20260904210100 49 0 0.0 0.0 0.00 0.01 0.01 89 996.3
20260904205531 50 0 0.0 0.0 0.00 0.01 0.01 89 996.4
20260904205034 49 0 0.0 0.0 0.00 0.01 0.01 89 996.4
20260904204552 50 0 0.0 0.0 0.00 0.01 0.01 89 996.3
20260904204031 50 0 0.0 0.0 0.00 0.01 0.01 89 996.3
20260904203534 50 0 0.0 0.0 0.00 0.01 0.01 89 996.4
20260904203055 50 0 0.0 0.0 0.00 0.01 0.01 89 996.4
20260904202532 50 0 0.0 0.0 0.00 0.01 0.01 89 996.4
20260904202029 50 0 0.0 0.0 0.00 0.01 0.01 89 996.4
20260904201551 50 0 0.0 0.0 0.00 0.01 0.01 90 996.3
20260904201032 49 0 0.0 0.0 0.00 0.01 0.01 91 996.3
20260904200532 49 0 0.0 3.0 0.00 0.01 0.01 90 996.3
20260904200049 50 0 0.0 3.0 0.00 0.01 0.01 89 996.3
20260904195533 50 0 0.0 0.0 0.00 0.01 0.01 89 996.2
20260904195030 50 0 0.0 0.0 0.00 0.01 0.01 89 996.3
20260904194608 50 0 0.0 0.0 0.00 0.01 0.01 89 996.3
20260904194035 50 0 0.0 0.0 0.00 0.01 0.01 88 996.3
20260904193531 50 0 0.0 2.0 0.00 0.01 0.01 88 996.3
20260904193056 50 0 0.0 2.0 0.00 0.01 0.01 87 996.3
20260904192533 51 0 0.0 2.0 0.00 0.01 0.01 86 996.3
20260904192034 51 0 0.0 1.0 0.00 0.01 0.01 87 996.3
20260904191552 51 0 0.0 0.0 0.00 0.01 0.01 86 996.3
20260904191033 51 0 0.0 1.0 0.00 0.01 0.01 86 996.3
20260904190533 51 0 0.0 1.0 0.00 0.01 0.01 85 996.2
20260904185532 52 0 0.0 5.0 0.00 0.01 0.01 84 996.2
20260904185032 52 94 0.0 5.0 0.00 0.01 0.01 84 996.2
20260904184611 52 127 0.0 2.0 0.00 0.01 0.01 84 996.1
20260904184032 52 143 0.0 2.0 0.00 0.01 0.01 84 996.0
20260904183530 52 0 0.0 2.0 0.00 0.01 0.01 84 996.1
20260904183054 52 0 0.0 2.0 0.00 0.01 0.01 84 996.1
20260904182533 53 146 0.0 4.0 0.00 0.01 0.01 83 995.9
20260904182031 53 0 1.0 4.0 0.00 0.01 0.01 83 996.0
20260904181555 53 47 0.0 1.0 0.00 0.01 0.01 83 996.0
20260904181034 53 0 0.0 1.0 0.00 0.01 0.01 83 996.0
20260904180533 53 0 0.0 1.0 0.00 0.01 0.01 82 996.0
20260904180105 53 0 0.0 1.0 0.00 0.01 0.01 83 996.0
20260904175529 53 0 0.0 3.0 0.00 0.01 0.01 82 995.9
20260904175032 53 0 0.0 3.0 0.00 0.01 0.01 81 995.9
20260904174606 53 238 0.0 1.0 0.00 0.01 0.01 81 996.0
20260904174031 53 0 0.0 1.0 0.00 0.01 0.01 81 995.9
20260904173530 53 0 0.0 1.0 0.00 0.01 0.01 80 996.1
20260904173059 54 0 0.0 1.0 0.00 0.01 0.01 80 996.0
20260904172530 54 0 0.0 2.0 0.00 0.01 0.01 79 996.0
20260904172030 54 0 0.0 2.0 0.00 0.01 0.01 79 996.0
20260904171549 54 0 0.0 2.0 0.00 0.01 0.01 78 995.9
20260904171028 55 0 0.0 1.0 0.00 0.01 0.01 78 995.9
20260904170529 54 0 0.0 1.0 0.00 0.01 0.01 79 996.0
20260904165532 55 0 0.0 4.0 0.00 0.01 0.01 78 995.9
20260904165032 55 0 0.0 5.0 0.00 0.01 0.01 79 995.9
20260904164601 55 132 0.0 5.0 0.00 0.01 0.01 78 995.9
20260904164032 55 0 0.0 2.0 0.00 0.01 0.01 80 995.8
20260904163529 55 69 0.0 2.0 0.00 0.01 0.01 79 995.8
20260904163104 54 0 0.0 2.0 0.00 0.01 0.01 79 995.7
20260904162531 54 0 0.0 2.0 0.00 0.01 0.01 80 995.8
20260904162029 55 0 0.0 2.0 0.00 0.01 0.01 79 995.8
20260904161553 55 0 0.0 2.0 0.00 0.01 0.01 80 995.8
20260904161033 55 0 0.0 0.0 0.00 0.01 0.01 80 995.8
20260904160534 55 0 0.0 0.0 0.00 0.01 0.01 80 995.7
20260904160059 55 0 0.0 0.0 0.00 0.01 0.01 80 995.8
20260904155532 55 0 0.0 0.0 0.00 0.01 0.01 80 995.7
20260904155031 55 0 0.0 0.0 0.00 0.01 0.01 79 995.9
20260904154559 55 0 0.0 0.0 0.00 0.01 0.01 80 995.7
20260904154030 55 0 0.0 0.0 0.00 0.01 0.01 80 995.8
20260904153530 55 0 0.0 0.0 0.00 0.01 0.01 79 995.8
20260904153054 55 0 0.0 0.0 0.00 0.01 0.01 79 995.8
20260904152531 55 0 0.0 0.0 0.00 0.01 0.01 78 995.9
20260904152030 55 0 0.0 0.0 0.00 0.01 0.01 78 996.0
20260904151549 55 0 0.0 0.0 0.00 0.01 0.01 77 996.0
20260904151032 55 0 0.0 0.0 0.00 0.01 0.01 77 996.0
20260904150532 55 0 0.0 0.0 0.00 0.01 0.01 76 996.0
20260904150057 55 0 0.0 0.0 0.00 0.01 0.01 77 996.0
20260904145530 55 0 0.0 0.0 0.00 0.01 0.01 77 996.0
20260904145032 56 0 0.0 0.0 0.00 0.01 0.01 76 996.0
20260904144556 56 0 0.0 0.0 0.00 0.01 0.01 75 996.0
20260904144030 56 0 0.0 0.0 0.00 0.01 0.01 75 995.9
20260904143530 56 0 0.0 0.0 0.00 0.01 0.01 75 995.9
20260904143052 56 0 0.0 0.0 0.00 0.01 0.01 74 996.0
20260904142530 56 0 0.0 0.0 0.00 0.01 0.01 74 996.0
20260904142031 56 0 0.0 0.0 0.00 0.01 0.01 73 996.1
20260904141549 56 0 0.0 0.0 0.00 0.01 0.01 72 996.0
20260904141236 56 0 0.0 0.0 0.00 0.01 0.01 72 996.0
20260904132532 58 0 0.0 1.0 0.00 0.01 0.01 72 996.2
20260904132033 58 0 0.0 2.0 0.00 0.01 0.01 73 996.2
20260904131547 58 309 0.0 2.0 0.00 0.01 0.01 74 996.3
20260904131031 58 0 0.0 2.0 0.00 0.01 0.01 75 996.5
20260904130530 58 66 0.0 2.0 0.00 0.01 0.01 75 996.4
20260904130048 58 0 0.0 2.0 0.00 0.01 0.01 76 996.6
20260904125532 58 0 0.0 3.0 0.00 0.01 0.01 76 996.6
20260904125034 58 0 0.0 3.0 0.00 0.01 0.01 76 996.5
20260904124826 58 1 0.0 0.0 0.00 0.01 0.01 76 996.5
20260904115531 58 46 0.0 4.0 0.00 0.02 0.01 74 996.5
20260904115029 58 41 0.0 4.0 0.00 0.02 0.01 75 996.6
20260904114549 57 67 1.0 3.0 0.00 0.02 0.01 74 996.6
20260904114030 57 27 0.0 4.0 0.00 0.02 0.01 76 996.6
20260904113531 57 38 0.0 4.0 0.00 0.02 0.01 76 996.6
20260904113055 57 41 1.0 4.0 0.00 0.02 0.01 76 996.7
20260904112531 57 57 2.0 4.0 0.00 0.02 0.01 75 996.7
20260904112035 56 51 2.0 4.0 0.00 0.02 0.01 75 996.7
20260904111553 57 51 1.0 4.0 0.00 0.02 0.01 76 996.7
20260904111030 56 38 1.0 4.0 0.00 0.02 0.01 76 996.8
20260904110532 57 25 1.0 3.0 0.00 0.02 0.01 75 996.8
20260904110055 57 0 0.0 3.0 0.00 0.02 0.01 77 996.9
20260904105533 56 37 1.0 5.0 0.00 0.03 0.01 77 996.9
20260904105031 56 0 1.0 5.0 0.00 0.03 0.01 76 997.1
20260904104554 56 86 1.0 5.0 0.00 0.03 0.01 77 996.9
20260904104030 56 35 1.0 5.0 0.00 0.03 0.01 77 997.0
20260904103530 56 0 2.0 5.0 0.00 0.03 0.01 76 997.0
20260904103058 56 28 0.0 3.0 0.00 0.03 0.01 77 997.1
20260904102532 56 146 1.0 4.0 0.00 0.03 0.01 77 997.2
20260904102030 55 0 1.0 4.0 0.00 0.03 0.01 77 997.1
20260904101605 56 14 0.0 3.0 0.00 0.03 0.01 77 997.2
20260904101031 56 0 0.0 6.0 0.00 0.03 0.01 78 997.2
20260904100532 56 93 1.0 6.0 0.00 0.03 0.01 76 997.2
20260904100049 56 49 1.0 6.0 0.00 0.03 0.01 78 997.1
20260904095531 56 65 1.0 3.0 0.00 0.03 0.01 77 997.2
20260904095032 56 0 0.0 3.0 0.00 0.03 0.01 78 997.3
20260904094552 56 44 0.0 3.0 0.00 0.03 0.01 79 997.3
20260904094030 55 49 0.0 4.0 0.00 0.03 0.01 80 997.4
20260904093530 55 101 0.0 4.0 0.00 0.03 0.01 79 997.3
20260904093114 55 0 1.0 4.0 0.00 0.03 0.01 79 997.3
20260904092533 55 57 1.0 4.0 0.00 0.03 0.01 80 997.4
20260904092031 55 0 1.0 5.0 0.00 0.03 0.01 80 997.4
20260904091552 54 351 1.0 5.0 0.00 0.03 0.01 79 997.4
20260904091031 55 0 0.0 3.0 0.00 0.03 0.01 80 997.5
20260904090530 55 0 0.0 5.0 0.00 0.03 0.01 81 997.4
20260904090053 54 75 0.0 5.0 0.00 0.03 0.01 81 997.5